Time,TemperatureF,DewpointF,PressureIn,WindDirection,WindDirectionDegrees,WindSpeedMPH,WindSpeedGustMPH,Humidity,HourlyPrecipIn,Conditions,Clouds,dailyrainin,SoftwareType,DateUTC
2013-03-05 00:04:00,38.5,31.9,30.07,NNW,337,9.4,12.8,77,0.00,,,0.04,wxRedirect v1.1,2013-03-05 06:04:00,
2013-03-05 00:10:00,38.5,31.9,30.07,NNW,337,6.5,9.4,77,0.00,,,0.04,wxRedirect v1.1,2013-03-05 06:10:00,
2013-03-05 00:15:00,38.5,31.9,30.07,NNW,337,8.1,9.4,77,0.00,,,0.04,wxRedirect v1.1,2013-03-05 06:15:00,
2013-03-05 00:20:00,38.5,31.9,30.08,NW,315,9.2,9.2,77,0.00,,,0.04,wxRedirect v1.1,2013-03-05 06:20:00,
2013-03-05 00:26:00,38.5,31.9,30.08,NW,315,7.4,9.2,77,0.00,,,0.04,wxRedirect v1.1,2013-03-05 06:26:00,
2013-03-05 00:31:00,38.5,31.9,30.08,NNW,337,8.1,9.4,77,0.00,,,0.04,wxRedirect v1.1,2013-03-05 06:31:00,
2013-03-05 00:36:00,38.3,31.7,30.08,NW,315,4.9,9.4,77,0.00,,,0.04,wxRedirect v1.1,2013-03-05 06:36:00,
2013-03-05 00:42:00,38.3,31.7,30.08,NW,315,6.0,8.9,77,0.00,,,0.04,wxRedirect v1.1,2013-03-05 06:42:00,
2013-03-05 00:47:00,38.5,32.2,30.08,NW,315,7.8,9.2,78,0.00,,,0.04,wxRedirect v1.1,2013-03-05 06:47:00,
2013-03-05 00:52:00,38.5,31.9,30.08,NW,315,6.0,9.2,77,0.00,,,0.04,wxRedirect v1.1,2013-03-05 06:52:00,
2013-03-05 00:58:00,38.5,31.9,30.08,NNW,337,17.0,17.0,77,0.00,,,0.04,wxRedirect v1.1,2013-03-05 06:58:00,
2013-03-05 01:03:00,38.3,31.0,30.09,NNW,337,8.3,17.0,75,0.00,,,0.04,wxRedirect v1.1,2013-03-05 07:03:00,
2013-03-05 01:08:00,38.3,30.1,30.08,NW,315,14.1,17.0,72,0.00,,,0.04,wxRedirect v1.1,2013-03-05 07:08:00,
2013-03-05 01:14:00,38.3,29.7,30.08,NNW,337,21.0,21.0,71,0.00,,,0.04,wxRedirect v1.1,2013-03-05 07:14:00,
2013-03-05 01:19:00,38.1,28.9,30.09,NNW,337,14.5,21.0,69,0.00,,,0.04,wxRedirect v1.1,2013-03-05 07:19:00,
2013-03-05 01:24:00,38.1,28.5,30.09,NNW,337,17.2,17.2,68,0.00,,,0.04,wxRedirect v1.1,2013-03-05 07:24:00,
2013-03-05 01:30:00,37.9,27.9,30.09,North,0,18.8,18.8,67,0.00,,,0.04,wxRedirect v1.1,2013-03-05 07:30:00,
2013-03-05 01:35:00,37.9,27.6,30.09,NW,315,18.6,18.8,66,0.00,,,0.04,wxRedirect v1.1,2013-03-05 07:35:00,
2013-03-05 01:40:00,37.8,27.0,30.09,North,0,15.2,18.6,65,0.00,,,0.04,wxRedirect v1.1,2013-03-05 07:40:00,
2013-03-05 01:46:00,37.6,26.5,30.09,NNW,337,23.0,23.0,64,0.00,,,0.04,wxRedirect v1.1,2013-03-05 07:46:00,
2013-03-05 01:51:00,37.4,26.3,30.10,NNW,337,16.6,23.0,64,0.00,,,0.04,wxRedirect v1.1,2013-03-05 07:51:00,
2013-03-05 01:56:00,37.2,25.8,30.10,North,0,9.2,16.6,63,0.00,,,0.04,wxRedirect v1.1,2013-03-05 07:56:00,
2013-03-05 02:02:00,37.2,25.8,30.11,North,0,14.8,21.3,63,0.00,,,0.04,wxRedirect v1.1,2013-03-05 08:02:00,
2013-03-05 02:07:00,37.0,25.6,30.11,North,0,16.8,21.3,63,0.00,,,0.04,wxRedirect v1.1,2013-03-05 08:07:00,
2013-03-05 02:12:00,36.9,25.4,30.12,North,0,21.0,21.0,63,0.00,,,0.04,wxRedirect v1.1,2013-03-05 08:12:00,
2013-03-05 02:18:00,36.7,24.9,30.12,North,0,16.6,21.0,62,0.00,,,0.04,wxRedirect v1.1,2013-03-05 08:18:00,
2013-03-05 02:23:00,36.5,24.7,30.12,North,0,13.9,16.6,62,0.00,,,0.04,wxRedirect v1.1,2013-03-05 08:23:00,
2013-03-05 02:28:00,36.3,24.5,30.14,NW,315,9.2,21.3,62,0.00,,,0.04,wxRedirect v1.1,2013-03-05 08:28:00,
2013-03-05 02:34:00,36.1,24.4,30.14,NNW,337,17.0,21.3,62,0.00,,,0.04,wxRedirect v1.1,2013-03-05 08:34:00,
2013-03-05 02:39:00,36.1,24.0,30.14,North,0,14.1,25.9,61,0.00,,,0.04,wxRedirect v1.1,2013-03-05 08:39:00,
2013-03-05 02:44:00,35.8,23.3,30.14,NNW,337,14.8,25.9,60,0.00,,,0.04,wxRedirect v1.1,2013-03-05 08:44:00,
2013-03-05 02:50:00,35.8,22.9,30.15,NNW,337,11.4,18.3,59,0.00,,,0.04,wxRedirect v1.1,2013-03-05 08:50:00,
2013-03-05 02:55:00,35.4,22.6,30.15,North,0,16.3,16.8,59,0.00,,,0.04,wxRedirect v1.1,2013-03-05 08:55:00,
2013-03-05 03:00:00,35.4,22.1,30.15,North,0,17.7,26.6,58,0.00,,,0.04,wxRedirect v1.1,2013-03-05 09:00:00,
2013-03-05 03:06:00,35.2,21.5,30.16,North,0,11.2,17.7,57,0.00,,,0.04,wxRedirect v1.1,2013-03-05 09:06:00,
2013-03-05 03:11:00,34.9,21.2,30.17,NNW,337,15.2,22.6,57,0.00,,,0.04,wxRedirect v1.1,2013-03-05 09:11:00,
2013-03-05 03:16:00,34.7,21.0,30.17,North,0,9.2,22.6,57,0.00,,,0.04,wxRedirect v1.1,2013-03-05 09:16:00,
2013-03-05 03:22:00,34.5,20.8,30.17,NNW,337,11.4,17.2,57,0.00,,,0.04,wxRedirect v1.1,2013-03-05 09:22:00,
2013-03-05 03:27:00,34.3,20.2,30.18,NNW,337,16.8,17.2,56,0.00,,,0.04,wxRedirect v1.1,2013-03-05 09:27:00,
2013-03-05 03:32:00,34.3,20.2,30.18,NNW,337,11.9,16.8,56,0.00,,,0.04,wxRedirect v1.1,2013-03-05 09:32:00,
2013-03-05 03:38:00,34.2,20.0,30.18,NNW,337,18.8,20.4,56,0.00,,,0.04,wxRedirect v1.1,2013-03-05 09:38:00,
2013-03-05 03:43:00,34.0,19.8,30.18,NNW,337,5.8,20.4,56,0.00,,,0.04,wxRedirect v1.1,2013-03-05 09:43:00,
2013-03-05 03:48:00,33.6,19.8,30.18,NNW,337,8.1,18.8,56,0.00,,,0.04,wxRedirect v1.1,2013-03-05 09:48:00,
2013-03-05 03:54:00,33.6,19.9,30.18,NW,315,9.6,12.5,57,0.00,,,0.04,wxRedirect v1.1,2013-03-05 09:54:00,
2013-03-05 03:59:00,33.6,19.9,30.19,NNE,22,10.3,12.5,57,0.00,,,0.04,wxRedirect v1.1,2013-03-05 09:59:00,
2013-03-05 04:04:00,33.4,19.8,30.19,NNW,337,8.9,10.3,57,0.00,,,0.04,wxRedirect v1.1,2013-03-05 10:04:00,
2013-03-05 04:10:00,33.3,19.6,30.19,NNW,337,7.8,20.4,57,0.00,,,0.04,wxRedirect v1.1,2013-03-05 10:10:00,
2013-03-05 04:15:00,33.1,19.4,30.19,NNW,337,13.4,20.4,57,0.00,,,0.04,wxRedirect v1.1,2013-03-05 10:15:00,
2013-03-05 04:20:00,32.9,19.7,30.19,North,0,9.2,13.4,58,0.00,,,0.04,wxRedirect v1.1,2013-03-05 10:20:00,
2013-03-05 04:26:00,32.9,19.7,30.20,NNW,337,10.1,15.4,58,0.00,,,0.04,wxRedirect v1.1,2013-03-05 10:26:00,
2013-03-05 04:31:00,32.7,19.1,30.20,NNW,337,10.1,28.0,57,0.00,,,0.04,wxRedirect v1.1,2013-03-05 10:31:00,
2013-03-05 04:36:00,32.5,19.0,30.21,North,0,12.3,28.0,57,0.00,,,0.04,wxRedirect v1.1,2013-03-05 10:36:00,
2013-03-05 04:42:00,32.4,18.8,30.21,NW,315,13.9,18.3,57,0.00,,,0.04,wxRedirect v1.1,2013-03-05 10:42:00,
2013-03-05 04:47:00,32.2,18.6,30.21,North,0,12.5,13.9,57,0.00,,,0.04,wxRedirect v1.1,2013-03-05 10:47:00,
2013-03-05 04:52:00,32.2,18.6,30.21,North,0,13.4,13.4,57,0.00,,,0.04,wxRedirect v1.1,2013-03-05 10:52:00,
2013-03-05 04:58:00,31.8,18.3,30.21,NNW,337,11.0,13.4,57,0.00,,,0.04,wxRedirect v1.1,2013-03-05 10:58:00,
2013-03-05 05:03:00,31.8,18.3,30.21,North,0,10.1,12.1,57,0.00,,,0.04,wxRedirect v1.1,2013-03-05 11:03:00,
2013-03-05 05:08:00,31.8,18.3,30.21,NNW,337,6.3,11.0,57,0.00,,,0.04,wxRedirect v1.1,2013-03-05 11:08:00,
2013-03-05 05:14:00,31.6,18.1,30.21,NNW,337,12.3,12.5,57,0.00,,,0.04,wxRedirect v1.1,2013-03-05 11:14:00,
2013-03-05 05:19:00,31.5,17.9,30.21,North,0,12.8,14.8,57,0.00,,,0.04,wxRedirect v1.1,2013-03-05 11:19:00,
2013-03-05 05:24:00,31.3,17.8,30.21,NNW,337,13.2,14.8,57,0.00,,,0.04,wxRedirect v1.1,2013-03-05 11:24:00,
2013-03-05 05:30:00,31.3,17.8,30.22,NNW,337,7.2,13.2,57,0.00,,,0.04,wxRedirect v1.1,2013-03-05 11:30:00,
2013-03-05 05:35:00,31.3,17.8,30.22,NW,315,9.8,11.0,57,0.00,,,0.04,wxRedirect v1.1,2013-03-05 11:35:00,
2013-03-05 05:40:00,31.1,17.6,30.22,NNW,337,6.9,12.1,57,0.00,,,0.04,wxRedirect v1.1,2013-03-05 11:40:00,
2013-03-05 05:46:00,31.1,17.6,30.22,NNW,337,4.0,12.1,57,0.00,,,0.04,wxRedirect v1.1,2013-03-05 11:46:00,
2013-03-05 05:51:00,30.9,17.4,30.22,NNW,337,13.0,13.0,57,0.00,,,0.04,wxRedirect v1.1,2013-03-05 11:51:00,
2013-03-05 05:56:00,30.9,17.8,30.22,North,0,9.2,13.0,58,0.00,,,0.04,wxRedirect v1.1,2013-03-05 11:56:00,
2013-03-05 06:02:00,30.7,17.7,30.22,NNW,337,7.6,13.0,58,0.00,,,0.04,wxRedirect v1.1,2013-03-05 12:02:00,
2013-03-05 06:07:00,30.7,17.7,30.22,NW,315,8.1,10.7,58,0.00,,,0.04,wxRedirect v1.1,2013-03-05 12:07:00,
2013-03-05 06:12:00,30.7,17.7,30.23,North,0,4.7,8.1,58,0.00,,,0.04,wxRedirect v1.1,2013-03-05 12:12:00,
2013-03-05 06:18:00,30.6,17.9,30.23,NNW,337,8.5,10.3,59,0.00,,,0.04,wxRedirect v1.1,2013-03-05 12:18:00,
2013-03-05 06:23:00,30.6,17.9,30.23,NNW,337,8.9,10.3,59,0.00,,,0.04,wxRedirect v1.1,2013-03-05 12:23:00,
2013-03-05 06:28:00,30.4,17.7,30.24,NNW,337,8.1,8.9,59,0.00,,,0.04,wxRedirect v1.1,2013-03-05 12:28:00,
2013-03-05 06:34:00,30.4,17.7,30.24,NNW,337,6.7,9.6,59,0.00,,,0.04,wxRedirect v1.1,2013-03-05 12:34:00,
2013-03-05 06:39:00,30.4,17.7,30.24,WNW,292,7.8,9.6,59,0.00,,,0.04,wxRedirect v1.1,2013-03-05 12:39:00,
2013-03-05 06:44:00,30.4,17.7,30.24,WNW,292,7.6,7.8,59,0.00,,,0.04,wxRedirect v1.1,2013-03-05 12:44:00,
2013-03-05 06:50:00,30.2,18.0,30.24,NW,315,5.8,12.1,60,0.00,,,0.04,wxRedirect v1.1,2013-03-05 12:50:00,
2013-03-05 06:55:00,30.2,18.0,30.24,NW,315,5.8,12.1,60,0.00,,,0.04,wxRedirect v1.1,2013-03-05 12:55:00,
2013-03-05 07:00:00,30.2,18.0,30.23,NW,315,12.1,12.1,60,0.00,,,0.04,wxRedirect v1.1,2013-03-05 13:00:00,
2013-03-05 07:06:00,30.0,17.8,30.24,WNW,292,8.7,12.1,60,0.00,,,0.04,wxRedirect v1.1,2013-03-05 13:06:00,
2013-03-05 07:11:00,30.0,17.8,30.23,NW,315,8.9,8.9,60,0.00,,,0.04,wxRedirect v1.1,2013-03-05 13:11:00,
2013-03-05 07:16:00,30.2,18.0,30.23,NW,315,7.4,8.9,60,0.00,,,0.04,wxRedirect v1.1,2013-03-05 13:16:00,
2013-03-05 07:22:00,30.4,18.1,30.23,NW,315,5.1,7.4,60,0.00,,,0.04,wxRedirect v1.1,2013-03-05 13:22:00,
2013-03-05 07:27:00,30.6,18.3,30.24,NW,315,6.9,6.9,60,0.00,,,0.04,wxRedirect v1.1,2013-03-05 13:27:00,
2013-03-05 07:32:00,30.7,18.9,30.24,WNW,292,5.8,9.8,61,0.00,,,0.04,wxRedirect v1.1,2013-03-05 13:32:00,
2013-03-05 07:38:00,31.3,19.4,30.24,WNW,292,7.2,9.8,61,0.00,,,0.04,wxRedirect v1.1,2013-03-05 13:38:00,
2013-03-05 07:43:00,31.6,19.4,30.24,NNW,337,12.1,12.1,60,0.00,,,0.04,wxRedirect v1.1,2013-03-05 13:43:00,
2013-03-05 07:48:00,32.2,19.9,30.25,NW,315,11.0,13.9,60,0.00,,,0.04,wxRedirect v1.1,2013-03-05 13:48:00,
2013-03-05 07:54:00,32.7,20.0,30.25,NW,315,11.9,13.9,59,0.00,,,0.04,wxRedirect v1.1,2013-03-05 13:54:00,
2013-03-05 07:59:00,33.6,20.8,30.26,NW,315,14.8,14.8,59,0.00,,,0.04,wxRedirect v1.1,2013-03-05 13:59:00,
2013-03-05 08:04:00,34.3,20.6,30.27,NW,315,9.6,14.8,57,0.00,,,0.04,wxRedirect v1.1,2013-03-05 14:04:00,
2013-03-05 08:10:00,34.7,21.0,30.27,NW,315,10.7,16.3,57,0.00,,,0.04,wxRedirect v1.1,2013-03-05 14:10:00,
2013-03-05 08:15:00,36.0,21.8,30.27,NNW,337,14.5,16.3,56,0.00,,,0.04,wxRedirect v1.1,2013-03-05 14:15:00,
2013-03-05 08:20:00,36.5,21.8,30.27,NW,315,15.2,15.9,55,0.00,,,0.04,wxRedirect v1.1,2013-03-05 14:20:00,
2013-03-05 08:26:00,37.2,22.0,30.27,NW,315,15.2,15.2,54,0.00,,,0.04,wxRedirect v1.1,2013-03-05 14:26:00,
2013-03-05 08:31:00,37.6,21.5,30.27,NNW,337,20.4,20.4,52,0.00,,,0.04,wxRedirect v1.1,2013-03-05 14:31:00,
2013-03-05 08:36:00,37.9,22.3,30.28,NNW,337,20.4,20.4,53,0.00,,,0.04,wxRedirect v1.1,2013-03-05 14:36:00,
2013-03-05 08:42:00,38.5,22.3,30.28,NW,315,9.8,23.9,52,0.00,,,0.04,wxRedirect v1.1,2013-03-05 14:42:00,
2013-03-05 08:47:00,39.0,21.9,30.28,NW,315,14.1,21.5,50,0.00,,,0.04,wxRedirect v1.1,2013-03-05 14:47:00,
2013-03-05 08:52:00,39.0,21.9,30.29,NW,315,19.0,20.1,50,0.00,,,0.04,wxRedirect v1.1,2013-03-05 14:52:00,
2013-03-05 08:58:00,39.0,21.4,30.29,NW,315,14.3,19.2,49,0.00,,,0.04,wxRedirect v1.1,2013-03-05 14:58:00,
2013-03-05 09:03:00,39.2,21.6,30.29,NW,315,14.8,27.3,49,0.00,,,0.04,wxRedirect v1.1,2013-03-05 15:03:00,
2013-03-05 09:08:00,39.7,22.1,30.29,NW,315,15.9,27.3,49,0.00,,,0.04,wxRedirect v1.1,2013-03-05 15:08:00,
2013-03-05 09:14:00,40.1,22.4,30.29,NW,315,18.8,18.8,49,0.00,,,0.04,wxRedirect v1.1,2013-03-05 15:14:00,
2013-03-05 09:19:00,40.5,21.7,30.30,NW,315,11.0,18.8,47,0.00,,,0.04,wxRedirect v1.1,2013-03-05 15:19:00,
2013-03-05 09:24:00,40.3,21.5,30.29,NNW,337,20.6,24.2,47,0.00,,,0.04,wxRedirect v1.1,2013-03-05 15:24:00,
2013-03-05 09:30:00,40.3,21.5,30.30,NNW,337,15.9,24.2,47,0.00,,,0.04,wxRedirect v1.1,2013-03-05 15:30:00,
2013-03-05 09:35:00,40.5,21.7,30.30,NW,315,20.4,22.1,47,0.00,,,0.04,wxRedirect v1.1,2013-03-05 15:35:00,
2013-03-05 09:40:00,40.6,21.8,30.30,NNW,337,17.4,23.0,47,0.00,,,0.04,wxRedirect v1.1,2013-03-05 15:40:00,
2013-03-05 09:46:00,40.8,21.5,30.30,WNW,292,10.1,23.0,46,0.00,,,0.04,wxRedirect v1.1,2013-03-05 15:46:00,
2013-03-05 09:51:00,41.0,21.6,30.29,NW,315,11.2,22.1,46,0.00,,,0.04,wxRedirect v1.1,2013-03-05 15:51:00,
2013-03-05 09:56:00,41.5,22.7,30.30,NNW,337,20.1,22.1,47,0.00,,,0.04,wxRedirect v1.1,2013-03-05 15:56:00,
2013-03-05 10:02:00,41.7,22.8,30.30,NNW,337,16.3,20.4,47,0.00,,,0.04,wxRedirect v1.1,2013-03-05 16:02:00,
2013-03-05 10:07:00,42.1,22.7,30.30,NW,315,21.5,24.4,46,0.00,,,0.04,wxRedirect v1.1,2013-03-05 16:07:00,
2013-03-05 10:12:00,42.1,22.7,30.30,NW,315,17.0,24.4,46,0.00,,,0.04,wxRedirect v1.1,2013-03-05 16:12:00,
2013-03-05 10:18:00,42.4,23.0,30.30,NW,315,17.0,17.0,46,0.00,,,0.04,wxRedirect v1.1,2013-03-05 16:18:00,
2013-03-05 10:23:00,42.6,22.6,30.30,NW,315,13.4,33.8,45,0.00,,,0.04,wxRedirect v1.1,2013-03-05 16:23:00,
2013-03-05 10:28:00,42.6,23.2,30.30,NNW,337,15.0,33.8,46,0.00,,,0.04,wxRedirect v1.1,2013-03-05 16:28:00,
2013-03-05 10:34:00,43.0,23.5,30.30,NNW,337,24.8,24.8,46,0.00,,,0.04,wxRedirect v1.1,2013-03-05 16:34:00,
2013-03-05 10:39:00,42.6,22.6,30.31,WNW,292,13.9,24.8,45,0.00,,,0.04,wxRedirect v1.1,2013-03-05 16:39:00,
2013-03-05 10:44:00,42.6,22.6,30.31,NW,315,17.9,20.8,45,0.00,,,0.04,wxRedirect v1.1,2013-03-05 16:44:00,
2013-03-05 10:50:00,42.6,22.6,30.30,North,0,15.2,22.8,45,0.00,,,0.04,wxRedirect v1.1,2013-03-05 16:50:00,
2013-03-05 10:55:00,42.6,22.6,30.30,North,0,13.9,15.2,45,0.00,,,0.04,wxRedirect v1.1,2013-03-05 16:55:00,
2013-03-05 11:00:00,42.4,21.9,30.31,NW,315,15.9,25.7,44,0.00,,,0.04,wxRedirect v1.1,2013-03-05 17:00:00,
2013-03-05 11:06:00,42.4,21.9,30.30,NNW,337,17.0,27.3,44,0.00,,,0.04,wxRedirect v1.1,2013-03-05 17:06:00,
2013-03-05 11:11:00,42.4,22.5,30.30,NW,315,20.6,27.3,45,0.00,,,0.04,wxRedirect v1.1,2013-03-05 17:11:00,
2013-03-05 11:16:00,42.4,21.9,30.30,NW,315,13.9,26.6,45,0.00,,,0.04,wxRedirect v1.1,2013-03-05 17:16:00,
2013-03-05 11:22:00,42.6,22.6,30.31,NW,315,15.2,26.6,45,0.00,,,0.04,wxRedirect v1.1,2013-03-05 17:22:00,
2013-03-05 11:27:00,43.0,22.4,30.31,NNE,22,22.4,22.4,44,0.00,,,0.04,wxRedirect v1.1,2013-03-05 17:27:00,
2013-03-05 11:32:00,42.6,22.1,30.30,NW,315,11.4,22.4,44,0.00,,,0.04,wxRedirect v1.1,2013-03-05 17:32:00,
2013-03-05 11:38:00,43.0,22.4,30.30,West,270,16.1,21.7,44,0.00,,,0.04,wxRedirect v1.1,2013-03-05 17:38:00,
2013-03-05 11:43:00,43.2,22.6,30.30,West,270,15.9,23.9,44,0.00,,,0.04,wxRedirect v1.1,2013-03-05 17:43:00,
2013-03-05 11:48:00,43.3,22.8,30.30,NW,315,21.5,23.9,44,0.00,,,0.04,wxRedirect v1.1,2013-03-05 17:48:00,
2013-03-05 11:53:00,43.5,22.9,30.31,NW,315,17.9,21.5,44,0.00,,,0.04,wxRedirect v1.1,2013-03-05 17:53:00,
2013-03-05 11:59:00,43.5,22.9,30.31,NW,315,15.0,19.9,44,0.00,,,0.04,wxRedirect v1.1,2013-03-05 17:59:00,
2013-03-05 12:04:00,43.7,23.1,30.31,NW,315,15.2,20.6,44,0.00,,,0.04,wxRedirect v1.1,2013-03-05 18:04:00,
2013-03-05 12:09:00,43.9,23.3,30.31,NNW,337,14.1,21.0,44,0.00,,,0.04,wxRedirect v1.1,2013-03-05 18:09:00,
2013-03-05 12:15:00,44.2,23.0,30.31,NW,315,11.2,21.0,43,0.00,,,0.04,wxRedirect v1.1,2013-03-05 18:15:00,
2013-03-05 12:20:00,44.4,23.7,30.31,NNW,337,19.2,31.8,44,0.00,,,0.04,wxRedirect v1.1,2013-03-05 18:20:00,
2013-03-05 12:25:00,44.4,23.7,30.31,NW,315,18.6,31.8,44,0.00,,,0.04,wxRedirect v1.1,2013-03-05 18:25:00,
2013-03-05 12:31:00,44.2,23.0,30.31,NNW,337,17.0,18.6,43,0.00,,,0.04,wxRedirect v1.1,2013-03-05 18:31:00,
2013-03-05 12:36:00,44.2,23.6,30.31,NNW,337,20.8,20.8,44,0.00,,,0.04,wxRedirect v1.1,2013-03-05 18:36:00,
2013-03-05 12:41:00,44.4,23.7,30.31,NW,315,12.8,20.8,44,0.00,,,0.04,wxRedirect v1.1,2013-03-05 18:41:00,
2013-03-05 12:47:00,44.4,23.7,30.31,NW,315,20.6,20.6,44,0.00,,,0.04,wxRedirect v1.1,2013-03-05 18:47:00,
2013-03-05 12:52:00,44.6,23.9,30.31,NW,315,14.3,25.7,44,0.00,,,0.04,wxRedirect v1.1,2013-03-05 18:52:00,
2013-03-05 12:57:00,44.8,24.1,30.31,NNW,337,10.1,17.9,44,0.00,,,0.04,wxRedirect v1.1,2013-03-05 18:57:00,
2013-03-05 13:03:00,44.4,23.7,30.31,North,0,15.0,15.2,44,0.00,,,0.04,wxRedirect v1.1,2013-03-05 19:03:00,
2013-03-05 13:08:00,44.6,23.9,30.30,North,0,14.1,18.3,44,0.00,,,0.04,wxRedirect v1.1,2013-03-05 19:08:00,
2013-03-05 13:13:00,44.8,24.6,30.30,NW,315,10.1,18.3,45,0.00,,,0.04,wxRedirect v1.1,2013-03-05 19:13:00,
2013-03-05 13:19:00,45.1,24.9,30.30,WNW,292,17.4,23.3,45,0.00,,,0.04,wxRedirect v1.1,2013-03-05 19:19:00,
2013-03-05 13:24:00,45.0,24.8,30.30,NW,315,17.9,25.9,45,0.00,,,0.04,wxRedirect v1.1,2013-03-05 19:24:00,
2013-03-05 13:29:00,45.0,24.2,30.30,North,0,20.4,25.9,44,0.00,,,0.04,wxRedirect v1.1,2013-03-05 19:29:00,
2013-03-05 13:35:00,45.0,24.2,30.30,NNW,337,13.2,20.4,44,0.00,,,0.04,wxRedirect v1.1,2013-03-05 19:35:00,
2013-03-05 13:40:00,45.0,24.2,30.29,NNW,337,11.6,20.4,44,0.00,,,0.04,wxRedirect v1.1,2013-03-05 19:40:00,
2013-03-05 13:45:00,45.0,24.2,30.29,NNW,337,8.9,16.1,44,0.00,,,0.04,wxRedirect v1.1,2013-03-05 19:45:00,
2013-03-05 13:51:00,44.8,24.1,30.29,NNW,337,19.2,19.2,44,0.00,,,0.04,wxRedirect v1.1,2013-03-05 19:51:00,
2013-03-05 13:56:00,44.6,23.9,30.29,NNW,337,19.2,19.2,44,0.00,,,0.04,wxRedirect v1.1,2013-03-05 19:56:00,
2013-03-05 14:01:00,44.4,23.7,30.29,NNE,22,15.4,19.2,44,0.00,,,0.04,wxRedirect v1.1,2013-03-05 20:01:00,
2013-03-05 14:07:00,44.4,24.3,30.29,NNW,337,20.6,20.6,45,0.00,,,0.04,wxRedirect v1.1,2013-03-05 20:07:00,
2013-03-05 14:12:00,44.8,24.6,30.29,North,0,17.9,20.6,45,0.00,,,0.04,wxRedirect v1.1,2013-03-05 20:12:00,
2013-03-05 14:17:00,44.6,23.9,30.29,NW,315,7.6,18.6,44,0.00,,,0.04,wxRedirect v1.1,2013-03-05 20:17:00,
2013-03-05 14:23:00,44.6,23.9,30.29,West,270,10.5,18.6,44,0.00,,,0.04,wxRedirect v1.1,2013-03-05 20:23:00,
2013-03-05 14:28:00,44.6,24.4,30.29,NW,315,19.5,19.5,45,0.00,,,0.04,wxRedirect v1.1,2013-03-05 20:28:00,
2013-03-05 14:33:00,44.4,23.7,30.29,NW,315,14.8,22.6,44,0.00,,,0.04,wxRedirect v1.1,2013-03-05 20:33:00,
2013-03-05 14:39:00,44.4,23.7,30.29,NW,315,17.2,22.6,44,0.00,,,0.04,wxRedirect v1.1,2013-03-05 20:39:00,
2013-03-05 14:44:00,44.4,23.7,30.30,NW,315,18.3,26.2,44,0.00,,,0.04,wxRedirect v1.1,2013-03-05 20:44:00,
2013-03-05 14:49:00,44.2,23.6,30.29,NNW,337,12.1,26.2,44,0.00,,,0.04,wxRedirect v1.1,2013-03-05 20:49:00,
2013-03-05 14:55:00,44.2,23.6,30.29,North,0,13.0,23.3,44,0.00,,,0.04,wxRedirect v1.1,2013-03-05 20:55:00,
2013-03-05 15:00:00,44.1,23.4,30.29,NNW,337,19.5,23.3,44,0.00,,,0.04,wxRedirect v1.1,2013-03-05 21:00:00,
2013-03-05 15:05:00,44.1,23.4,30.30,NNW,337,15.4,25.9,44,0.00,,,0.04,wxRedirect v1.1,2013-03-05 21:05:00,
2013-03-05 15:11:00,44.1,23.4,30.29,NNW,337,17.2,25.9,44,0.00,,,0.04,wxRedirect v1.1,2013-03-05 21:11:00,
2013-03-05 15:16:00,43.9,23.3,30.29,NNW,337,16.1,17.2,44,0.00,,,0.04,wxRedirect v1.1,2013-03-05 21:16:00,
2013-03-05 15:21:00,43.9,23.8,30.30,NNW,337,17.9,17.9,45,0.00,,,0.04,wxRedirect v1.1,2013-03-05 21:21:00,
2013-03-05 15:27:00,44.1,24.0,30.29,NW,315,14.1,19.7,45,0.00,,,0.04,wxRedirect v1.1,2013-03-05 21:27:00,
2013-03-05 15:32:00,44.1,24.0,30.29,WNW,292,12.1,19.7,45,0.00,,,0.04,wxRedirect v1.1,2013-03-05 21:32:00,
2013-03-05 15:37:00,44.2,24.1,30.29,NNW,337,19.9,19.9,45,0.00,,,0.04,wxRedirect v1.1,2013-03-05 21:37:00,
2013-03-05 15:43:00,44.4,24.3,30.29,North,0,14.5,19.9,45,0.00,,,0.04,wxRedirect v1.1,2013-03-05 21:43:00,
2013-03-05 15:48:00,44.2,23.6,30.29,NNW,337,9.6,14.5,44,0.00,,,0.04,wxRedirect v1.1,2013-03-05 21:48:00,
2013-03-05 15:53:00,44.2,23.6,30.29,NW,315,15.7,15.7,44,0.00,,,0.04,wxRedirect v1.1,2013-03-05 21:53:00,
2013-03-05 15:59:00,44.1,23.4,30.29,NNW,337,13.6,19.2,44,0.00,,,0.04,wxRedirect v1.1,2013-03-05 21:59:00,
2013-03-05 16:04:00,43.9,23.3,30.29,NW,315,14.8,19.2,44,0.00,,,0.04,wxRedirect v1.1,2013-03-05 22:04:00,
2013-03-05 16:09:00,43.9,23.3,30.29,NNW,337,7.8,17.2,44,0.00,,,0.04,wxRedirect v1.1,2013-03-05 22:09:00,
2013-03-05 16:15:00,43.9,23.3,30.29,NW,315,16.6,17.2,44,0.00,,,0.04,wxRedirect v1.1,2013-03-05 22:15:00,
2013-03-05 16:20:00,43.7,23.1,30.29,NNW,337,10.5,16.6,44,0.00,,,0.04,wxRedirect v1.1,2013-03-05 22:20:00,
2013-03-05 16:25:00,43.5,22.9,30.29,NW,315,14.1,16.6,44,0.00,,,0.04,wxRedirect v1.1,2013-03-05 22:25:00,
2013-03-05 16:31:00,43.5,22.9,30.29,NNW,337,21.3,21.3,44,0.00,,,0.04,wxRedirect v1.1,2013-03-05 22:31:00,
2013-03-05 16:36:00,43.3,22.8,30.28,NNW,337,12.8,21.3,44,0.00,,,0.04,wxRedirect v1.1,2013-03-05 22:36:00,
2013-03-05 16:41:00,43.2,22.6,30.28,NNW,337,15.7,21.3,44,0.00,,,0.04,wxRedirect v1.1,2013-03-05 22:41:00,
2013-03-05 16:47:00,43.0,22.4,30.28,NW,315,14.1,17.7,44,0.00,,,0.04,wxRedirect v1.1,2013-03-05 22:47:00,
2013-03-05 16:52:00,43.0,22.4,30.29,NNW,337,16.3,19.2,44,0.00,,,0.04,wxRedirect v1.1,2013-03-05 22:52:00,
2013-03-05 16:57:00,43.0,22.4,30.28,NNW,337,11.0,19.2,44,0.00,,,0.04,wxRedirect v1.1,2013-03-05 22:57:00,
2013-03-05 17:03:00,43.0,22.4,30.28,NNW,337,17.2,17.2,44,0.00,,,0.04,wxRedirect v1.1,2013-03-05 23:03:00,
2013-03-05 17:08:00,42.6,22.6,30.28,NW,315,19.5,19.5,45,0.00,,,0.04,wxRedirect v1.1,2013-03-05 23:08:00,
2013-03-05 17:13:00,42.6,22.6,30.28,NW,315,13.2,19.5,45,0.00,,,0.04,wxRedirect v1.1,2013-03-05 23:13:00,
2013-03-05 17:19:00,42.6,22.6,30.28,NNW,337,10.5,13.2,45,0.00,,,0.04,wxRedirect v1.1,2013-03-05 23:19:00,
2013-03-05 17:24:00,42.4,22.5,30.29,NNW,337,10.1,13.2,45,0.00,,,0.04,wxRedirect v1.1,2013-03-05 23:24:00,
2013-03-05 17:29:00,42.4,22.5,30.29,NNW,337,9.6,12.1,45,0.00,,,0.04,wxRedirect v1.1,2013-03-05 23:29:00,
2013-03-05 17:35:00,42.1,22.1,30.29,NW,315,6.9,12.1,45,0.00,,,0.04,wxRedirect v1.1,2013-03-05 23:35:00,
2013-03-05 17:40:00,42.1,22.1,30.29,NW,315,12.3,12.3,45,0.00,,,0.04,wxRedirect v1.1,2013-03-05 23:40:00,
2013-03-05 17:45:00,42.1,22.1,30.29,NNW,337,6.5,15.2,45,0.00,,,0.04,wxRedirect v1.1,2013-03-05 23:45:00,
2013-03-05 17:51:00,41.9,22.0,30.29,North,0,11.2,15.9,45,0.00,,,0.04,wxRedirect v1.1,2013-03-05 23:51:00,
2013-03-05 17:56:00,41.7,22.3,30.30,NW,315,6.7,15.9,46,0.00,,,0.04,wxRedirect v1.1,2013-03-05 23:56:00,
2013-03-05 18:01:00,41.7,22.3,30.30,NNW,337,4.5,13.9,46,0.00,,,0.04,wxRedirect v1.1,2013-03-06 00:01:00,
2013-03-05 18:07:00,41.5,22.1,30.30,North,0,7.8,13.4,46,0.00,,,0.04,wxRedirect v1.1,2013-03-06 00:07:00,
2013-03-05 18:12:00,41.5,22.7,30.30,NNW,337,6.7,7.8,47,0.00,,,0.04,wxRedirect v1.1,2013-03-06 00:12:00,
2013-03-05 18:17:00,41.4,22.5,30.30,NW,315,7.4,7.8,47,0.00,,,0.04,wxRedirect v1.1,2013-03-06 00:17:00,
2013-03-05 18:23:00,41.2,22.3,30.30,NW,315,6.0,7.4,47,0.00,,,0.04,wxRedirect v1.1,2013-03-06 00:23:00,
2013-03-05 18:28:00,41.0,22.7,30.31,NW,315,6.9,8.1,48,0.00,,,0.04,wxRedirect v1.1,2013-03-06 00:28:00,
2013-03-05 18:33:00,40.8,22.5,30.31,NW,315,7.8,8.1,48,0.00,,,0.04,wxRedirect v1.1,2013-03-06 00:33:00,
2013-03-05 18:39:00,40.8,22.5,30.31,NNW,337,7.4,8.1,48,0.00,,,0.04,wxRedirect v1.1,2013-03-06 00:39:00,
2013-03-05 18:44:00,40.8,23.0,30.31,NNW,337,8.3,8.3,49,0.00,,,0.04,wxRedirect v1.1,2013-03-06 00:44:00,
2013-03-05 18:49:00,40.8,23.0,30.32,NNW,337,2.2,8.5,49,0.00,,,0.04,wxRedirect v1.1,2013-03-06 00:49:00,
2013-03-05 18:55:00,40.5,22.7,30.32,NNW,337,8.5,8.5,49,0.00,,,0.04,wxRedirect v1.1,2013-03-06 00:55:00,
2013-03-05 19:00:00,40.1,22.4,30.32,NW,315,4.9,8.5,49,0.00,,,0.04,wxRedirect v1.1,2013-03-06 01:00:00,
2013-03-05 19:05:00,39.9,22.2,30.32,NNW,337,4.0,4.9,49,0.00,,,0.04,wxRedirect v1.1,2013-03-06 01:05:00,
2013-03-05 19:11:00,39.7,22.1,30.32,NW,315,7.2,7.2,49,0.00,,,0.04,wxRedirect v1.1,2013-03-06 01:11:00,
2013-03-05 19:16:00,39.6,22.4,30.32,NNW,337,6.3,7.2,50,0.00,,,0.04,wxRedirect v1.1,2013-03-06 01:16:00,
2013-03-05 19:21:00,39.4,22.3,30.32,North,0,10.1,10.1,50,0.00,,,0.04,wxRedirect v1.1,2013-03-06 01:21:00,
2013-03-05 19:27:00,39.4,22.3,30.32,NNW,337,6.0,10.1,50,0.00,,,0.04,wxRedirect v1.1,2013-03-06 01:27:00,
2013-03-05 19:32:00,39.4,22.3,30.33,NNW,337,2.9,6.0,50,0.00,,,0.04,wxRedirect v1.1,2013-03-06 01:32:00,
2013-03-05 19:37:00,39.0,21.9,30.33,NNW,337,5.6,5.6,50,0.00,,,0.04,wxRedirect v1.1,2013-03-06 01:37:00,
2013-03-05 19:43:00,39.0,21.9,30.33,NNW,337,2.9,5.6,50,0.00,,,0.04,wxRedirect v1.1,2013-03-06 01:43:00,
2013-03-05 19:48:00,38.8,22.2,30.33,NNW,337,5.6,6.3,51,0.00,,,0.04,wxRedirect v1.1,2013-03-06 01:48:00,
2013-03-05 19:53:00,38.8,22.2,30.32,NNW,337,5.8,6.3,51,0.00,,,0.04,wxRedirect v1.1,2013-03-06 01:53:00,
2013-03-05 19:59:00,38.7,22.0,30.33,North,0,3.1,5.8,51,0.00,,,0.04,wxRedirect v1.1,2013-03-06 01:59:00,
2013-03-05 20:04:00,38.5,21.9,30.33,NNW,337,4.7,5.8,51,0.00,,,0.04,wxRedirect v1.1,2013-03-06 02:04:00,
2013-03-05 20:09:00,38.5,21.9,30.33,NNW,337,4.0,4.7,51,0.00,,,0.04,wxRedirect v1.1,2013-03-06 02:09:00,
2013-03-05 20:15:00,38.3,21.7,30.32,North,0,9.4,9.4,51,0.00,,,0.04,wxRedirect v1.1,2013-03-06 02:15:00,
2013-03-05 20:20:00,37.9,21.8,30.33,NNW,337,7.2,12.5,52,0.00,,,0.04,wxRedirect v1.1,2013-03-06 02:20:00,
2013-03-05 20:25:00,37.8,21.7,30.33,NNW,337,4.0,12.5,52,0.00,,,0.04,wxRedirect v1.1,2013-03-06 02:25:00,
2013-03-05 20:31:00,37.6,21.5,30.33,NNW,337,2.0,4.0,52,0.00,,,0.04,wxRedirect v1.1,2013-03-06 02:31:00,
2013-03-05 20:36:00,37.6,21.5,30.33,North,0,2.9,3.1,52,0.00,,,0.04,wxRedirect v1.1,2013-03-06 02:36:00,
2013-03-05 20:41:00,37.6,21.5,30.33,NNW,337,5.4,5.6,52,0.00,,,0.04,wxRedirect v1.1,2013-03-06 02:41:00,
2013-03-05 20:47:00,37.6,21.5,30.33,NNW,337,4.3,5.6,52,0.00,,,0.04,wxRedirect v1.1,2013-03-06 02:47:00,
2013-03-05 20:52:00,37.2,21.2,30.34,NW,315,2.9,5.4,52,0.00,,,0.04,wxRedirect v1.1,2013-03-06 02:52:00,
2013-03-05 20:57:00,37.2,21.2,30.34,North,0,5.4,5.4,52,0.00,,,0.04,wxRedirect v1.1,2013-03-06 02:57:00,
2013-03-05 21:03:00,37.0,21.0,30.34,North,0,4.7,5.4,52,0.00,,,0.04,wxRedirect v1.1,2013-03-06 03:03:00,
2013-03-05 21:08:00,37.0,21.5,30.34,North,0,3.4,4.7,53,0.00,,,0.04,wxRedirect v1.1,2013-03-06 03:08:00,
2013-03-05 21:13:00,36.9,21.3,30.35,NNW,337,3.4,3.4,53,0.00,,,0.04,wxRedirect v1.1,2013-03-06 03:13:00,
2013-03-05 21:19:00,36.9,21.3,30.35,NNW,337,3.4,3.4,53,0.00,,,0.04,wxRedirect v1.1,2013-03-06 03:19:00,
2013-03-05 21:24:00,36.9,21.3,30.35,North,0,3.4,4.9,53,0.00,,,0.04,wxRedirect v1.1,2013-03-06 03:24:00,
2013-03-05 21:29:00,36.7,21.1,30.35,North,0,5.1,5.1,53,0.00,,,0.04,wxRedirect v1.1,2013-03-06 03:29:00,
2013-03-05 21:35:00,36.3,20.8,30.35,North,0,3.6,5.1,53,0.00,,,0.04,wxRedirect v1.1,2013-03-06 03:35:00,
2013-03-05 21:40:00,36.3,21.2,30.35,North,0,0.0,4.5,54,0.00,,,0.04,wxRedirect v1.1,2013-03-06 03:40:00,
2013-03-05 21:45:00,36.1,21.1,30.35,North,0,0.0,3.6,54,0.00,,,0.04,wxRedirect v1.1,2013-03-06 03:45:00,
2013-03-05 21:51:00,36.1,21.1,30.36,NNE,22,0.0,2.5,54,0.00,,,0.04,wxRedirect v1.1,2013-03-06 03:51:00,
2013-03-05 21:56:00,36.1,21.1,30.36,NNE,22,2.9,3.6,54,0.00,,,0.04,wxRedirect v1.1,2013-03-06 03:56:00,
2013-03-05 22:01:00,36.1,21.1,30.36,North,0,0.9,4.7,54,-99.99,,,0.00,wxRedirect v1.1,2013-03-06 04:01:00,
2013-03-05 22:07:00,36.0,20.9,30.37,North,0,1.6,4.7,54,-99.99,,,0.00,wxRedirect v1.1,2013-03-06 04:07:00,
2013-03-05 22:12:00,35.8,20.8,30.36,North,0,1.8,1.8,54,-99.99,,,0.00,wxRedirect v1.1,2013-03-06 04:12:00,
2013-03-05 22:17:00,35.8,20.8,30.36,NNE,22,2.9,2.9,54,-99.99,,,0.00,wxRedirect v1.1,2013-03-06 04:17:00,
2013-03-05 22:23:00,35.8,20.8,30.37,NNE,22,0.0,2.9,54,-99.99,,,0.00,wxRedirect v1.1,2013-03-06 04:23:00,
2013-03-05 22:28:00,35.6,21.0,30.37,NNE,22,1.3,2.9,55,-99.99,,,0.00,wxRedirect v1.1,2013-03-06 04:28:00,
2013-03-05 22:33:00,35.4,20.8,30.36,NNE,22,1.8,1.8,55,-99.99,,,0.00,wxRedirect v1.1,2013-03-06 04:33:00,
2013-03-05 22:39:00,35.4,20.8,30.36,NNE,22,1.1,1.8,55,-99.99,,,0.00,wxRedirect v1.1,2013-03-06 04:39:00,
2013-03-05 22:44:00,35.4,20.8,30.37,NNE,22,0.0,1.1,55,-99.99,,,0.00,wxRedirect v1.1,2013-03-06 04:44:00,
2013-03-05 22:49:00,35.2,20.7,30.36,NNE,22,0.0,1.1,55,-99.99,,,0.00,wxRedirect v1.1,2013-03-06 04:49:00,
2013-03-05 22:55:00,35.2,20.7,30.37,NNE,22,1.6,1.6,55,-99.99,,,0.00,wxRedirect v1.1,2013-03-06 04:55:00,
2013-03-05 23:00:00,34.9,20.7,30.37,NNE,22,0.0,1.6,56,-99.99,,,0.00,wxRedirect v1.1,2013-03-06 05:00:00,
2013-03-05 23:01:00,34.9,20.7,30.37,NNE,22,0.0,1.6,56,-99.99,,,0.00,wxRedirect v1.1,2013-03-06 05:01:00,
2013-03-05 23:02:00,34.9,20.7,30.37,NNE,22,0.0,1.6,56,-99.99,,,0.00,wxRedirect v1.1,2013-03-06 05:02:00,
2013-03-05 23:04:00,34.9,20.7,30.37,NNE,22,0.0,1.6,56,-99.99,,,0.00,wxRedirect v1.1,2013-03-06 05:04:00,
2013-03-05 23:10:00,34.7,20.6,30.37,NNE,22,0.0,0.0,56,-99.99,,,0.00,wxRedirect v1.1,2013-03-06 05:10:00,
2013-03-05 23:15:00,34.7,20.6,30.37,NNE,22,0.0,0.0,56,-99.99,,,0.00,wxRedirect v1.1,2013-03-06 05:15:00,
2013-03-05 23:20:00,34.5,20.4,30.36,NNE,22,1.6,1.6,56,-99.99,,,0.00,wxRedirect v1.1,2013-03-06 05:20:00,
2013-03-05 23:26:00,34.3,20.2,30.37,NNE,22,0.0,1.6,56,-99.99,,,0.00,wxRedirect v1.1,2013-03-06 05:26:00,
2013-03-05 23:31:00,34.3,20.2,30.37,NNE,22,0.0,0.0,56,-99.99,,,0.00,wxRedirect v1.1,2013-03-06 05:31:00,
2013-03-05 23:36:00,34.3,20.2,30.37,NNE,22,0.0,0.0,56,-99.99,,,0.00,wxRedirect v1.1,2013-03-06 05:36:00,
2013-03-05 23:42:00,34.3,20.2,30.37,NNE,22,0.0,0.0,56,-99.99,,,0.00,wxRedirect v1.1,2013-03-06 05:42:00,
2013-03-05 23:47:00,34.3,20.6,30.37,NNE,22,0.0,0.0,57,-99.99,,,0.00,wxRedirect v1.1,2013-03-06 05:47:00,
2013-03-05 23:52:00,34.0,20.3,30.36,NNE,22,1.8,1.8,57,-99.99,,,0.00,wxRedirect v1.1,2013-03-06 05:52:00,
2013-03-05 23:57:00,34.0,20.3,30.36,NNE,22,0.0,1.8,57,-99.99,,,0.00,wxRedirect v1.1,2013-03-06 05:57:00,